• en Belgique
  • Liste des pays
  • À 7 jours
  • Température de l'eau
  • Carte satellitaire
  • Carte météo
  • Widgets météo
  • user-avatar
    Se connecter

    Météo par heure à Vitebsk

    Ce jour, 20 Octobre, Samedi

    Heure Température Précipitation Vent Pression Humidité
    00:00 +6°C° 0 mm 2 m/s 751 mmHg 89%
    01:00 +6°C° 0 mm 2 m/s 751 mmHg 89%
    02:00 +6°C° 0 mm 1 m/s 751 mmHg 89%
    03:00 +6°C° 0 mm 1 m/s 751 mmHg 90%
    04:00 +5°C° 0 mm 1 m/s 751 mmHg 90%
    05:00 +5°C° 0 mm 1 m/s 751 mmHg 90%
    06:00 +5°C° 0 mm 1 m/s 751 mmHg 88%
    07:00 +6°C° 0 mm 1 m/s 751 mmHg 86%
    08:00 +6°C° 0 mm 1 m/s 752 mmHg 82%
    09:00 +8°C° 0 mm 1 m/s 752 mmHg 75%
    10:00 +9°C° 0 mm 1 m/s 752 mmHg 69%
    11:00 +10°C° 0 mm 1 m/s 752 mmHg 62%
    12:00 +11°C° 0 mm 1 m/s 752 mmHg 59%
    13:00 +11°C° 0 mm 1 m/s 752 mmHg 56%
    14:00 +12°C° 0 mm 1 m/s 751 mmHg 53%
    15:00 +10°C° 0 mm 1 m/s 751 mmHg 58%
    16:00 +9°C° 0 mm 1 m/s 751 mmHg 63%
    17:00 +8°C° 0 mm 1 m/s 751 mmHg 68%
    18:00 +7°C° 0 mm 1 m/s 751 mmHg 71%
    19:00 +7°C° 0 mm 1 m/s 751 mmHg 73%
    20:00 +6°C° 0 mm 1 m/s 752 mmHg 76%
    21:00 +6°C° 0 mm 1 m/s 752 mmHg 78%
    22:00 +5°C° 0 mm 1 m/s 752 mmHg 81%
    23:00 +5°C° 0 mm 1 m/s 752 mmHg 83%

    Demain, 21 Octobre, Dimanche

    Heure Température Précipitation Vent Pression Humidité
    00:00 +5°C° 0 mm 1 m/s 752 mmHg 85%
    01:00 +4°C° 0 mm 1 m/s 752 mmHg 86%
    02:00 +4°C° 0 mm 1 m/s 752 mmHg 88%
    03:00 +4°C° 0 mm 1 m/s 752 mmHg 89%
    04:00 +4°C° 0 mm 1 m/s 752 mmHg 90%
    05:00 +3°C° 0 mm 1 m/s 752 mmHg 91%
    06:00 +4°C° 0 mm 1 m/s 753 mmHg 89%
    07:00 +4°C° 0 mm 1 m/s 753 mmHg 88%
    08:00 +4°C° 0 mm 1 m/s 754 mmHg 87%
    09:00 +6°C° 0 mm 1 m/s 754 mmHg 80%
    10:00 +8°C° 0 mm 1 m/s 754 mmHg 72%
    11:00 +9°C° 0 mm 1 m/s 754 mmHg 65%
    12:00 +10°C° 0 mm 1 m/s 754 mmHg 62%
    13:00 +10°C° 0 mm 1 m/s 754 mmHg 59%
    14:00 +11°C° 0 mm 1 m/s 754 mmHg 55%
    15:00 +8°C° 0 mm 0 m/s 754 mmHg 61%
    16:00 +7°C° 0 mm 0 m/s 754 mmHg 66%
    17:00 +6°C° 0 mm 0 m/s 754 mmHg 71%
    18:00 +5°C° 0 mm 0 m/s 754 mmHg 73%
    19:00 +5°C° 0 mm 0 m/s 755 mmHg 75%
    20:00 +4°C° 0 mm 0 m/s 755 mmHg 78%
    21:00 +4°C° 0 mm 0 m/s 755 mmHg 79%
    22:00 +5°C° 0 mm 1 m/s 755 mmHg 80%
    23:00 +5°C° 0 mm 1 m/s 755 mmHg 81%

    Après-demain, 22 Octobre, Lundi

    Heure Température Précipitation Vent Pression Humidité
    00:00 +4°C° 0 mm 1 m/s 755 mmHg 83%
    01:00 +4°C° 0 mm 1 m/s 754 mmHg 84%
    02:00 +4°C° 0 mm 1 m/s 754 mmHg 85%
    03:00 +3°C° 0 mm 1 m/s 754 mmHg 86%
    04:00 +3°C° 0 mm 1 m/s 754 mmHg 87%
    05:00 +3°C° 0 mm 1 m/s 753 mmHg 87%
    06:00 +2°C° 0 mm 2 m/s 753 mmHg 86%
    07:00 +3°C° 0 mm 2 m/s 753 mmHg 85%
    08:00 +3°C° 0 mm 2 m/s 753 mmHg 83%
    09:00 +4°C° 0 mm 2 m/s 753 mmHg 77%
    10:00 +5°C° 0 mm 3 m/s 752 mmHg 71%
    11:00 +8°C° 0 mm 3 m/s 752 mmHg 65%
    12:00 +8°C° 0 mm 3 m/s 751 mmHg 63%
    13:00 +9°C° 0 mm 3 m/s 751 mmHg 62%
    14:00 +10°C° 0 mm 4 m/s 750 mmHg 60%
    15:00 +9°C° 0 mm 3 m/s 749 mmHg 65%
    16:00 +7°C° 0 mm 3 m/s 749 mmHg 71%
    17:00 +5°C° 0 mm 3 m/s 748 mmHg 76%
    18:00 +5°C° 0 mm 3 m/s 748 mmHg 78%
    19:00 +5°C° 0 mm 3 m/s 748 mmHg 81%
    20:00 +4°C° 0 mm 3 m/s 747 mmHg 83%
    21:00 +4°C° 0 mm 3 m/s 747 mmHg 86%
    22:00 +4°C° 0 mm 3 m/s 746 mmHg 88%
    23:00 +4°C° 0 mm 3 m/s 746 mmHg 91%

    23 Octobre, Mardi

    Heure Température Précipitation Vent Pression Humidité
    00:00 +4°C° 0.1 mm 3 m/s 745 mmHg 92%
    01:00 +4°C° 0.1 mm 3 m/s 745 mmHg 93%
    02:00 +4°C° 0.1 mm 3 m/s 744 mmHg 94%
    03:00 +4°C° 0.7 mm 3 m/s 744 mmHg 94%
    04:00 +4°C° 0.7 mm 3 m/s 744 mmHg 94%
    05:00 +4°C° 0.7 mm 3 m/s 743 mmHg 94%
    06:00 +4°C° 0.2 mm 3 m/s 743 mmHg 93%
    07:00 +4°C° 0.2 mm 3 m/s 743 mmHg 91%
    08:00 +4°C° 0.2 mm 3 m/s 743 mmHg 90%
    09:00 +5°C° 0 mm 3 m/s 743 mmHg 84%
    10:00 +5°C° 0 mm 3 m/s 743 mmHg 78%
    11:00 +6°C° 0 mm 4 m/s 742 mmHg 73%
    12:00 +7°C° 0 mm 3 m/s 742 mmHg 68%
    13:00 +8°C° 0 mm 3 m/s 741 mmHg 63%
    14:00 +8°C° 0 mm 3 m/s 741 mmHg 58%
    15:00 +7°C° 0 mm 3 m/s 740 mmHg 63%
    16:00 +6°C° 0 mm 2 m/s 740 mmHg 67%
    17:00 +5°C° 0 mm 2 m/s 739 mmHg 72%
    18:00 +3°C° 0 mm 3 m/s 738 mmHg 73%
    19:00 +3°C° 0 mm 3 m/s 737 mmHg 74%
    20:00 +3°C° 0 mm 4 m/s 736 mmHg 75%
    21:00 +3°C° 0 mm 4 m/s 735 mmHg 75%
    22:00 +2°C° 0 mm 5 m/s 734 mmHg 76%
    23:00 +2°C° 0 mm 6 m/s 733 mmHg 76%

    24 Octobre, Mercredi

    Heure Température Précipitation Vent Pression Humidité
    00:00 +2°C° 0.3 mm 6 m/s 731 mmHg 77%
    01:00 +2°C° 0.3 mm 6 m/s 730 mmHg 77%
    02:00 +2°C° 0.3 mm 7 m/s 729 mmHg 77%
    03:00 +2°C° 0.7 mm 7 m/s 728 mmHg 79%
    04:00 +2°C° 0.7 mm 7 m/s 727 mmHg 81%
    05:00 +2°C° 0.7 mm 6 m/s 726 mmHg 82%
    06:00 +2°C° 0.4 mm 6 m/s 725 mmHg 83%
    07:00 +3°C° 0.4 mm 5 m/s 725 mmHg 85%
    08:00 +3°C° 0.4 mm 5 m/s 724 mmHg 86%
    09:00 +4°C° 0.4 mm 4 m/s 724 mmHg 87%
    10:00 +4°C° 0.4 mm 3 m/s 724 mmHg 87%
    11:00 +4°C° 0.4 mm 3 m/s 724 mmHg 88%
    12:00 +4°C° 0.7 mm 3 m/s 724 mmHg 88%
    13:00 +5°C° 0.7 mm 2 m/s 724 mmHg 88%
    14:00 +5°C° 0.7 mm 2 m/s 724 mmHg 88%
    15:00 +4°C° 0.4 mm 3 m/s 724 mmHg 87%
    16:00 +4°C° 0.4 mm 3 m/s 724 mmHg 87%
    17:00 +4°C° 0.4 mm 3 m/s 724 mmHg 87%
    18:00 +4°C° 0.1 mm 4 m/s 724 mmHg 86%
    19:00 +4°C° 0.1 mm 4 m/s 724 mmHg 85%
    20:00 +4°C° 0.1 mm 4 m/s 725 mmHg 85%
    21:00 +3°C° 0.1 mm 4 m/s 725 mmHg 85%
    22:00 +3°C° 0.1 mm 4 m/s 725 mmHg 86%
    23:00 +3°C° 0.1 mm 4 m/s 725 mmHg 86%

    25 Octobre, Jeudi

    Heure Température Précipitation Vent Pression Humidité
    00:00 +2°C° 0 mm 5 m/s 725 mmHg 87%
    01:00 +2°C° 0 mm 5 m/s 725 mmHg 88%
    02:00 +2°C° 0 mm 5 m/s 726 mmHg 88%
    03:00 +3°C° 0.1 mm 5 m/s 726 mmHg 87%
    04:00 +3°C° 0.1 mm 6 m/s 726 mmHg 86%
    05:00 +3°C° 0.1 mm 6 m/s 727 mmHg 85%
    06:00 +3°C° 0.2 mm 6 m/s 727 mmHg 83%
    07:00 +3°C° 0.2 mm 7 m/s 728 mmHg 81%
    08:00 +2°C° 0.2 mm 7 m/s 728 mmHg 80%
    09:00 +2°C° 0 mm 7 m/s 729 mmHg 77%
    10:00 +2°C° 0 mm 7 m/s 729 mmHg 74%
    11:00 +1°C° 0 mm 8 m/s 730 mmHg 71%
    12:00 +3°C° 0 mm 7 m/s 730 mmHg 69%
    13:00 +3°C° 0 mm 7 m/s 730 mmHg 67%
    14:00 +3°C° 0 mm 7 m/s 730 mmHg 65%
    15:00 +3°C° 0 mm 6 m/s 731 mmHg 67%
    16:00 +2°C° 0 mm 5 m/s 731 mmHg 70%
    17:00 +3°C° 0 mm 4 m/s 731 mmHg 73%
    18:00 +1°C° 0 mm 4 m/s 731 mmHg 77%
    19:00 +1°C° 0 mm 4 m/s 731 mmHg 81%
    20:00 0°C° 0 mm 4 m/s 731 mmHg 84%
    21:00 +1°C° 0 mm 3 m/s 731 mmHg 86%
    22:00 +1°C° 0 mm 3 m/s 731 mmHg 89%
    23:00 0°C° 0 mm 3 m/s 731 mmHg 91%
    Voir plus